Volver al catálogo

COSMOS 970 DEB

ActivoLEO
NORAD 12870·DEBRIS·🇷🇺 Russia

Lanzado Dec 21, 1977 desde Baikonur Cosmodrome

Loading…

Próximos Pases (próximas 24 horas)

TLE

ActualizadoSource: Space-Track

Época: Sep 14, 2026, 00:47 UTC

1 12870U 77121AY  26257.03279410  .00000519  00000-0  46816-3 0  9997
2 12870  65.7223 277.6766 0115118 343.4997  36.4513 13.89421960441792

Sigue COSMOS 970 DEB en tiempo real con AllMySat

Download on the App Store